[[{"header":{"parameterUnit":"m.s-1","parameterCategory":1,"la1":30.2992,"la2":30.254,"lo1":-89.0895,"lo2":-89.0443,"dy":0.0025,"dx":0.0025,"nx":19,"ny":19,"refTime":"2026-03-10T03:00:00:Z","depth":0,"parameterNumber":2,"parameterNumberName":"U-component_of_WINDS"},"data":[0,0,0,-2.3919,-2.3917,-2.3831,-2.3831,-2.3733,-2.3733,0,0,0,0,0,0,0,0,0,0,0,-2.3955,-2.3955,-2.3919,-2.3917,-2.3831,-2.3831,-2.3733,-2.3733,0,0,0,0,0,0,0,0,0,0,0,-2.3955,-2.3955,-2.3955,-2.3917,-2.3831,-2.3831,-2.3734,-2.3793,0,0,0,0,0,0,0,0,0,0,-2.3874,-2.3919,-2.3955,-2.3955,-2.3916,-2.3832,-2.3831,-2.3796,-2.3789,-2.3778,0,-2.3775,0,-2.3752,-2.3727,-2.3727,0,0,0,-2.3908,-2.3925,-2.3892,-2.3955,-2.3916,-2.3832,-2.3868,-2.3792,-2.3785,-2.377,-2.3773,-2.3769,-2.3751,-2.3727,-2.3726,-2.37,-2.37,0,0,-2.3913,-2.3945,-2.3897,-2.3888,-2.3906,-2.387,-2.3865,-2.3787,-2.3792,-2.3773,-2.3766,-2.3749,-2.3726,-2.3725,-2.3699,-2.37,0,0,0,-2.3933,-2.3948,-2.3917,-2.3892,-2.3876,-2.3868,-2.3862,-2.3795,-2.3782,-2.3765,-2.3748,-2.3726,-2.3725,-2.3699,-2.37,-2.3745,0,0,0,-2.3935,-2.396,-2.392,-2.3938,-2.3878,-2.3835,-2.3872,-2.3788,-2.3778,-2.3749,-2.3726,-2.3724,-2.3699,-2.3699,-2.3743,-2.3761,0,0,0,-2.3957,-2.3962,-2.3954,-2.394,-2.3905,-2.3836,-2.3818,-2.3785,-2.3768,-2.3727,-2.3724,-2.3698,-2.3699,-2.3742,-2.3758,-2.3762,0,0,0,-2.3989,-2.3995,-2.3955,-2.3956,-2.3906,-2.3866,-2.3819,-2.3787,-2.3757,-2.3725,-2.3699,-2.3699,-2.3741,-2.3756,-2.376,-2.377,-2.3778,0,0,-2.4015,-2.4,-2.3997,-2.3959,-2.3935,-2.3877,-2.3858,-2.3799,-2.3765,-2.3722,-2.3721,-2.3744,-2.3758,-2.3762,-2.3814,-2.3821,0,0,0,-2.4016,-2.4015,-2.4001,-2.3976,-2.3933,-2.3897,-2.3838,-2.3816,-2.3779,-2.3751,-2.3747,-2.3754,-2.3755,-2.3758,-2.3763,-2.3761,-2.3703,-2.3703,-2.3703,-2.4097,-2.4055,-2.4047,-2.3994,-2.397,-2.391,-2.3885,-2.3844,-2.3807,-2.3807,-2.3793,-2.3831,-2.3836,-2.384,-2.3838,-2.3796,-2.3797,-2.3797,-2.3797,-2.413,-2.412,-2.4072,-2.4047,-2.4001,-2.3978,-2.392,-2.3894,-2.3864,-2.3837,-2.3836,-2.3809,-2.3848,-2.3844,-2.38,-2.3799,-2.3799,-2.3799,-2.3798,-2.4176,-2.4164,-2.4139,-2.4097,-2.4069,-2.4014,-2.3988,-2.3947,-2.3907,-2.3906,-2.3886,-2.3885,-2.3877,-2.39,-2.39,-2.39,-2.39,-2.39,-2.39,-2.4234,-2.4204,-2.4189,-2.4144,-2.4122,-2.4087,-2.4026,-2.4001,-2.3963,-2.3934,-2.3934,-2.3895,-2.3861,-2.3852,-2.3902,-2.3902,-2.3902,-2.3901,-2.3901,-2.4279,-2.4263,-2.4239,-2.4217,-2.416,-2.4133,-2.4081,-2.4035,-2.4009,-2.3996,-2.3958,-2.3941,-2.3921,-2.3916,-2.3908,-2.3969,-2.3969,-2.3969,-2.3969,-2.4317,-2.4305,-2.427,-2.4237,-2.42,-2.4151,-2.4121,-2.4073,-2.402,-2.4,-2.3986,-2.3973,-2.397,-2.3952,-2.3946,-2.3938,-2.4005,-2.4005,-2.4005,-2.4341,-2.4323,-2.4308,-2.4259,-2.4211,-2.4169,-2.414,-2.4101,-2.4037,-2.4005,-2.3983,-2.3982,-2.396,-2.3956,-2.3922,-2.3915,-2.3899,0,0]},{"header":{"parameterUnit":"m.s-1","parameterCategory":1,"la1":30.2992,"la2":30.254,"lo1":-89.0895,"lo2":-89.0443,"dy":0.0025,"dx":0.0025,"nx":19,"ny":19,"refTime":"2026-03-10T03:00:00:Z","depth":0,"parameterNumber":3,"parameterNumberName":"V-component_of_WINDS"},"data":[0,0,0,3.4275,3.4276,3.4305,3.4305,3.4336,3.4336,0,0,0,0,0,0,0,0,0,0,0,3.4259,3.4258,3.4275,3.4276,3.4305,3.4305,3.4336,3.4336,0,0,0,0,0,0,0,0,0,0,0,3.4259,3.4259,3.4258,3.4276,3.4305,3.4305,3.4336,3.4317,0,0,0,0,0,0,0,0,0,0,3.4289,3.4265,3.4259,3.4258,3.4276,3.4305,3.4305,3.4316,3.4318,3.4318,0,3.4314,0,3.4325,3.4337,3.4337,0,0,0,3.4281,3.4264,3.4279,3.4258,3.4276,3.4305,3.4294,3.4317,3.4319,3.4321,3.4315,3.4316,3.4326,3.4337,3.4337,3.4319,3.4319,0,0,3.428,3.426,3.4277,3.428,3.4272,3.4293,3.4294,3.4318,3.4311,3.4315,3.4317,3.4326,3.4337,3.4338,3.4319,3.4319,0,0,0,3.4271,3.4258,3.4273,3.4278,3.4284,3.4293,3.4295,3.431,3.4317,3.4317,3.4327,3.4337,3.4338,3.432,3.4319,3.4283,0,0,0,3.427,3.4253,3.4272,3.426,3.4284,3.4297,3.4286,3.4315,3.4318,3.4327,3.4337,3.4338,3.432,3.4319,3.4285,3.4268,0,0,0,3.4259,3.4252,3.4254,3.4259,3.4271,3.4297,3.4305,3.4316,3.4324,3.4337,3.4338,3.432,3.432,3.4286,3.4271,3.426,0,0,0,3.4241,3.4218,3.4253,3.4231,3.4271,3.4274,3.4305,3.4308,3.4315,3.4338,3.432,3.4319,3.4287,3.4273,3.4262,3.4247,3.4239,0,0,3.4201,3.4212,3.4202,3.4234,3.4226,3.4271,3.4259,3.4284,3.4304,3.4314,3.4314,3.4284,3.4271,3.426,3.4199,3.4193,0,0,0,3.4182,3.4174,3.4177,3.4183,3.4203,3.4221,3.425,3.4262,3.4271,3.4304,3.4277,3.427,3.4265,3.4259,3.4253,3.4252,3.4315,3.4316,3.4316,3.4093,3.4123,3.4109,3.4143,3.415,3.4185,3.4194,3.4215,3.4239,3.4234,3.4236,3.4195,3.4188,3.4183,3.4181,3.4231,3.423,3.423,3.423,3.4038,3.4033,3.4072,3.4073,3.4106,3.4107,3.4143,3.4162,3.417,3.4194,3.4191,3.4214,3.4175,3.4175,3.4228,3.4228,3.4228,3.4229,3.4229,3.3983,3.3987,3.4002,3.4019,3.403,3.4067,3.4076,3.4105,3.4132,3.4129,3.4138,3.4138,3.4144,3.4131,3.4131,3.4131,3.4131,3.4131,3.4131,3.3921,3.3939,3.3942,3.3966,3.3978,3.3998,3.4038,3.4051,3.4073,3.4094,3.4095,3.4123,3.4166,3.4176,3.4129,3.4129,3.4129,3.413,3.413,3.3853,3.3875,3.3878,3.389,3.3926,3.3938,3.3977,3.4004,3.4019,3.4024,3.4055,3.4081,3.4095,3.41,3.4109,3.4047,3.4047,3.4047,3.4047,3.3808,3.3819,3.3833,3.3852,3.3873,3.3911,3.392,3.3954,3.3992,3.4005,3.4019,3.4034,3.4038,3.4049,3.4055,3.4064,3.3992,3.3992,3.3992,3.377,3.3786,3.3785,3.3823,3.3855,3.3883,3.3893,3.3917,3.3965,3.3991,3.4017,3.4019,3.4044,3.405,3.4073,3.4081,3.4098,0,0]}]]